Satellite: UWE-1
Catalog number: 28892
Epoch time:      06270.90394073
Element set:    0562
Inclination:      098.1494 deg
RA of node:       167.3915 deg
Eccentricity:    0.0016640
Arg of perigee:   208.6734 deg
Mean anomaly:     151.3553 deg
Mean motion:   14.59399170 rev/day
Decay rate:       1.45e-06 rev/day^2
Epoch rev:           04895
Checksum:              324

Satellite: CO-58
Catalog number: 28895
Epoch time:      06270.75435817
Element set:     546
Inclination:      098.1508 deg
RA of node:       167.3608 deg
Eccentricity:    0.0017290
Arg of perigee:   209.3508 deg
Mean anomaly:     150.6716 deg
Mean motion:   14.59449400 rev/day
Decay rate:       2.05e-06 rev/day^2
Epoch rev:            4881
Checksum:              327

Satellite: NCUBE2
Catalog number: 28897
Epoch time:      06270.24083949
Element set:    0125
Inclination:      098.1489 deg
RA of node:       166.8329 deg
Eccentricity:    0.0016732
Arg of perigee:   213.5580 deg
Mean anomaly:     146.4575 deg
Mean motion:   14.59605518 rev/day
Decay rate:       1.27e-06 rev/day^2
Epoch rev:           04101
Checksum:              316

/EX



_______________________________________________
Via the Keps mailing list courtesy of AMSAT-NA
Keps@amsat.org
http://amsat.org/mailman/listinfo/keps

--- ViaMAIL!/WC v1.60d
 * Origin: Chowdanet (401-724-4410) telnet://chowdanet.com  (1:323/120)